Home > Weather > Białystok > Past weeks

Flag for Poland Past Weather in Białystok, Poland — Yesterday and Last 2 Weeks

Now
85 °F

Scattered clouds.


Feels Like: 89 °F
Forecast: 68 / 89 °F
Wind: 5 mph from South

Location: Bialystok

Current Time: Jun 25, 2016 at 12:33:55 PM

Latest Report: Jun 25, 2016 at 11:00 AM


Visibility: 16 mi

Pressure: 30.05 "Hg

Humidity: 61%

Dew Point: 70 °F

Location of BiałystokLocation

Past Weather in Białystok — Graph

°F

Białystok Temperature Yesterday

Maximum temperature yesterday: 86 °F (at 5:00 PM)
Minimum temperature yesterday: 56 °F (at 4:00 AM)
Average temperature yesterday: 72 °F

High & Low Weather Summary for the Past Weeks

 TemperatureHumidityPressure
High86 °F (Jun 24, 5:00 PM)99% (Jun 16, 5:00 AM)30.34 "Hg (Jun 16, 5:00 AM)
Low38 °F (Jun 12, 4:00 AM)30% (Jun 13, 4:00 PM)29.47 "Hg (Jun 17, 2:00 PM)
Average63 °F72%29.93 "Hg
* Reported Jun 10 11:00 AM — Jun 25 11:00 AM, Białystok, Weather by CustomWeather, © 2016

Note: Actual official high and low records may vary slightly from our data, if they occured in-between our weather recording intervals... More about our weather records

Advertising

Białystok Weather History for the Previous 24 Hours

Scroll right to see more
 ConditionsComfort  
Time TempWeatherWind HumidityBarometerVisibility
11:00 AM
Sat, Jun 25
85 °FScattered clouds.5 mph61%30.05 "Hg16 mi
10:00 AM82 °FSunny.3 mph63%30.06 "Hg14 mi
9:00 AM81 °FSunny.2 mph67%30.07 "Hg16 mi
8:00 AM78 °FSunny.2 mph72%30.08 "Hg12 mi
7:00 AM75 °FSunny.2 mph76%30.08 "Hg16 mi
6:00 AM71 °FSunny.1 mph83%30.09 "Hg13 mi
5:00 AM64 °FFog.1 mph96%30.09 "Hg5 mi
4:00 AM63 °FFog.1 mph96%30.10 "Hg3 mi
3:00 AM63 °FFog.1 mph95%30.11 "Hg3 mi
2:00 AM64 °FFog.1 mph94%30.11 "Hg4 mi
1:00 AM64 °FFog.No wind93%30.12 "Hg5 mi
12:00 AM65 °FClear.1 mph91%30.12 "Hg7 mi
11:00 PM
Fri, Jun 24
67 °FClear.1 mph87%30.12 "Hg8 mi
10:00 PM68 °FClear.1 mph89%30.12 "Hg7 mi
9:00 PM71 °FClear.No wind84%30.12 "Hg9 mi
8:00 PM76 °FSunny.No wind75%30.11 "Hg8 mi
7:00 PM84 °FSunny.1 mph51%30.11 "Hg17 mi
6:00 PM85 °FPassing clouds.2 mph45%30.11 "Hg22 mi
5:00 PM86 °FPassing clouds.2 mph43%30.12 "Hg19 mi
4:00 PM84 °FPassing clouds.3 mph47%30.13 "Hg19 mi
3:00 PM85 °FPassing clouds.3 mph48%30.14 "Hg18 mi
2:00 PM84 °FPassing clouds.3 mph46%30.16 "Hg14 mi
1:00 PM83 °FPassing clouds.3 mph50%30.18 "Hg18 mi
12:00 PM81 °FPassing clouds.3 mph50%30.19 "Hg22 mi
Weather by CustomWeather, © 2016

See weather overviewHow to use our weather pages